Date,TemperatureHighF,TemperatureAvgF,TemperatureLowF,DewpointHighF,DewpointAvgF,DewpointLowF,HumidityHigh,HumidityAvg,HumidityLow,PressureMaxIn,PressureMinIn,WindSpeedMaxMPH,WindSpeedAvgMPH,GustSpeedMaxMPH,PrecipitationSumIn
2013-1-1,81.3,63.2,49.8,51.7,31.5,13.8,63,38,10,30.14,29.95,6,1,13,0.00
2013-1-2,85.8,68.4,56.3,52.7,38.0,16.9,64,40,10,29.99,29.88,4,0,8,0.00
2013-1-3,80.8,65.6,57.6,55.6,47.0,27.7,67,53,15,30.07,29.93,7,1,12,0.00
2013-1-4,84.9,63.9,60.6,53.4,49.6,22.3,64,60,53,30.17,29.99,5,1,12,0.02
2013-1-5,78.1,67.6,59.5,57.0,41.9,21.0,67,43,13,30.19,30.09,8,2,14,0.04
2013-1-6,81.9,72.1,62.6,59.1,53.2,41.0,71,54,24,30.12,29.97,4,1,11,0.18
2013-1-7,73.8,68.5,62.4,56.2,45.5,32.6,72,46,23,30.12,30.02,9,2,17,0.01
2013-1-8,71.2,69.8,66.6,56.1,51.5,46.7,65,53,42,30.07,30.03,3,1,6,0.06
2013-1-9,81.7,74.0,65.8,62.9,53.8,41.4,74,52,24,30.22,30.11,8,3,15,0.00
2013-1-10,81.0,73.0,63.0,60.5,46.4,25.0,66,43,13,30.24,30.14,10,2,18,0.00
2013-1-11,82.8,69.9,61.2,63.2,45.8,18.8,72,47,10,30.19,30.08,10,2,18,0.00
2013-1-12,81.0,69.3,58.3,62.8,43.4,21.2,71,45,12,30.11,30.02,9,2,16,0.00
2013-1-13,68.9,68.5,68.0,52.9,50.6,48.7,57,53,50,30.03,30.01,2,1,4,0.00
2013-1-14,80.4,69.6,57.9,59.3,41.5,24.8,66,41,13,30.11,30.04,8,2,13,0.00
2013-1-15,79.7,69.7,61.9,61.7,47.2,35.8,70,48,21,30.07,29.97,8,2,12,0.04
2013-1-16,87.6,71.2,58.8,58.5,41.5,19.2,70,42,10,30.02,29.92,4,1,10,0.00
2013-1-17,85.3,69.2,54.7,59.4,33.6,13.3,69,30,10,30.00,29.82,8,3,16,0.00
2013-1-18,73.6,59.4,44.1,44.9,21.7,0.5,51,25,10,30.17,29.99,12,3,21,0.02
2013-1-19,75.2,69.3,65.1,52.8,39.5,28.4,62,35,22,30.17,30.04,11,4,21,0.13
2013-1-20,75.0,65.4,59.0,54.9,46.6,35.5,71,52,26,30.08,29.96,8,1,14,0.04
2013-1-21,79.3,66.5,59.9,57.2,44.1,27.7,67,47,16,29.99,29.89,5,1,9,0.06
2013-1-22,70.9,60.0,46.2,43.9,20.6,1.9,53,26,10,30.19,29.95,10,2,19,0.00
2013-1-23,72.7,55.5,43.7,27.1,16.8,3.1,48,26,10,30.26,30.17,8,1,17,0.00
2013-1-24,78.4,56.9,40.8,39.0,22.3,5.3,60,33,10,30.24,30.13,6,0,12,0.00
2013-1-25,80.8,60.4,47.1,43.5,29.1,8.3,63,38,10,30.22,30.08,4,0,8,0.00
2013-1-26,83.3,60.9,45.0,43.9,28.1,11.9,62,36,10,30.19,30.07,5,0,8,0.00
2013-1-27,79.2,65.5,49.8,51.4,33.7,14.7,65,38,10,30.22,30.14,10,2,16,0.05
2013-1-28,76.3,71.2,68.9,54.4,43.4,33.3,60,38,21,30.25,30.17,7,3,12,0.00
2013-1-29,81.0,71.9,61.0,57.1,44.4,28.8,68,42,15,30.17,30.03,8,2,15,0.00
2013-1-30,85.8,74.2,63.5,56.4,34.9,16.8,68,31,10,30.03,29.81,7,2,14,0.00
2013-1-31,73.2,59.7,42.8,54.0,17.3,-4.7,59,24,10,30.14,29.82,5,1,11,0.05
2013-2-1,72.5,53.8,41.2,20.0,6.2,-7.3,42,16,10,30.25,30.12,7,1,14,0.00
2013-2-2,75.0,56.1,39.6,30.9,18.0,3.1,52,28,10,30.21,30.06,7,1,11,0.00
2013-2-3,51.3,50.2,49.1,31.3,30.0,28.6,48,46,43,30.06,30.03,1,0,3,0.00
2013-2-11,86.4,72.7,59.0,42.6,31.3,16.5,49,25,10,30.14,30.00,6,2,11,0.00
2013-2-12,88.0,74.0,61.0,49.9,36.4,20.1,57,30,10,30.02,29.85,4,1,10,0.00
2013-2-13,90.0,75.4,62.6,58.2,39.6,18.4,68,35,10,29.88,29.73,6,2,13,0.05
2013-2-14,72.0,63.4,60.3,51.8,47.2,42.0,67,56,35,29.95,29.85,3,0,6,0.52
2013-2-15,75.2,62.2,55.8,50.0,40.5,14.8,70,50,10,29.97,29.86,2,1,5,0.05
2013-2-16,73.2,60.3,47.1,44.2,19.7,-5.5,62,29,10,29.99,29.79,5,1,11,0.00
2013-2-17,59.4,46.3,32.2,8.4,-2.0,-15.8,36,15,10,30.26,30.00,6,1,11,0.00
2013-2-18,69.8,51.8,30.7,26.3,10.8,-6.2,44,24,10,30.27,30.14,11,2,20,0.00
2013-2-19,83.1,64.4,46.2,46.7,25.1,14.4,57,30,10,30.14,29.97,8,1,14,0.00
2013-2-21,83.8,70.8,59.2,54.3,36.4,17.0,63,35,10,30.02,29.92,7,1,11,0.00
2013-2-22,81.7,72.1,59.9,56.0,47.0,32.7,62,43,18,30.01,29.92,8,2,14,0.00
2013-2-23,90.7,76.8,65.7,61.0,40.4,17.4,69,35,10,29.95,29.78,4,1,13,0.00
2013-2-24,87.8,72.1,67.1,59.0,49.0,22.2,72,50,10,29.89,29.80,5,2,11,0.04
2013-2-25,88.7,75.4,65.7,63.4,46.6,21.4,74,45,10,29.83,29.70,4,1,8,0.33
2013-2-26,84.2,75.5,64.9,57.3,46.2,20.7,61,40,10,29.77,29.66,7,2,15,0.00
2013-2-27,80.8,68.5,60.1,53.0,33.9,14.7,65,34,10,29.87,29.77,4,1,8,0.00
2013-2-28,80.4,66.8,50.4,33.8,17.0,2.5,49,18,10,29.91,29.77,4,1,10,0.00
2013-3-1,68.7,58.9,47.5,31.2,8.7,-1.2,47,15,10,29.90,29.81,4,1,9,0.00
2013-3-2,64.8,52.6,39.4,10.0,0.3,-8.8,29,12,10,29.94,29.84,7,1,14,0.00
2013-3-3,61.2,46.9,33.3,14.8,1.7,-10.5,35,17,10,30.08,29.88,7,1,15,0.00
2013-3-4,67.5,48.9,30.7,22.6,7.5,-4.7,47,22,10,30.16,30.04,6,1,12,0.00
2013-3-5,83.3,61.1,40.1,33.6,17.1,3.2,54,23,10,30.11,29.94,7,1,12,0.00
2013-3-6,75.2,62.0,43.5,44.5,17.7,-8.1,51,22,10,30.04,29.85,8,2,17,0.00
2013-3-7,69.8,53.1,38.3,23.1,8.5,-4.8,43,18,10,30.12,30.01,10,1,14,0.00
2013-3-8,74.3,56.0,40.3,32.3,17.9,5.4,54,28,10,30.14,30.04,9,2,14,0.00
2013-3-9,73.8,53.7,44.1,36.7,24.1,11.2,54,37,10,30.14,30.04,8,1,13,0.00
2013-3-10,77.2,70.5,59.7,40.3,18.3,10.3,40,15,10,30.09,30.02,10,4,15,0.00
2013-3-11,79.2,67.5,52.9,44.3,25.7,13.6,51,25,10,30.04,29.85,8,3,14,0.00
2013-3-12,78.1,69.0,57.9,53.5,40.3,31.1,57,36,25,29.91,29.80,4,2,12,0.17
2013-3-13,77.2,65.4,47.8,40.2,16.7,1.4,57,20,10,30.05,29.91,9,2,17,0.00
2013-3-18,82.8,72.3,63.0,46.1,29.9,17.3,49,24,10,29.98,29.83,4,1,8,0.02
2013-3-19,88.5,72.1,61.7,53.3,35.4,16.2,60,33,10,29.91,29.80,4,1,10,0.00
2013-3-20,82.2,71.1,60.4,55.7,35.6,15.7,61,33,10,29.88,29.69,3,1,10,0.00
2013-3-21,78.6,61.3,47.1,38.5,20.2,0.2,52,26,10,29.86,29.74,4,1,8,0.00
2013-3-22,76.8,60.5,42.8,45.7,24.7,10.6,51,31,10,29.93,29.82,7,2,11,0.04
2013-3-23,91.0,77.0,66.4,54.7,37.7,16.9,59,30,10,29.90,29.66,5,2,9,0.00
2013-3-24,91.6,73.1,66.7,56.9,47.0,16.3,64,45,10,29.77,29.54,11,2,24,0.11
2013-3-25,70.0,69.7,69.6,57.7,57.2,56.9,65,64,64,29.63,29.62,2,1,4,0.00
2013-3-26,67.5,51.9,42.6,8.9,-2.8,-10.1,14,10,10,30.13,29.93,4,1,10,0.00
2013-3-27,71.1,51.9,38.7,15.6,4.0,-10.8,35,15,10,30.21,30.10,8,1,13,0.00
2013-3-28,70.7,54.2,36.9,25.8,11.9,-3.1,49,23,10,30.21,30.11,9,2,14,0.00
2013-3-29,74.8,63.1,41.7,30.3,12.9,0.2,49,16,10,30.25,30.13,8,2,14,0.00
2013-3-30,80.6,62.6,44.2,36.0,18.8,7.9,52,23,10,30.19,30.05,11,2,17,0.00
2013-3-31,86.7,70.6,55.4,39.6,24.9,12.2,43,21,10,30.11,29.91,8,2,16,0.00
2013-4-1,69.6,66.3,61.5,43.1,41.7,39.7,49,41,34,29.95,29.88,4,0,10,0.00
2013-4-2,83.1,71.2,59.7,49.9,33.6,15.4,61,32,10,30.00,29.90,8,2,13,0.01
2013-4-3,83.3,73.6,62.2,54.9,38.0,19.0,57,33,10,29.99,29.89,9,3,15,0.02
2013-4-4,76.3,71.1,66.7,57.2,49.8,44.0,62,47,38,29.93,29.77,8,2,16,0.15
2013-4-5,78.1,67.2,61.5,54.0,40.6,28.2,61,40,18,29.87,29.70,7,2,18,0.11
2013-4-6,78.3,70.0,53.8,40.7,24.3,12.1,51,22,10,30.03,29.87,11,3,20,0.00
2013-4-7,80.4,73.3,58.8,41.6,21.6,13.4,49,16,10,30.08,29.96,9,3,16,0.00
2013-4-8,84.2,71.1,56.7,50.3,29.5,13.8,57,27,10,30.06,29.97,9,2,14,0.00
2013-4-9,70.2,67.2,65.1,42.1,41.0,39.8,43,38,35,30.05,30.03,0,0,3,0.00
2013-4-10,84.4,72.7,60.3,58.4,38.3,19.9,57,34,10,30.04,29.92,11,3,18,0.00
2013-4-11,85.1,78.3,72.5,53.0,41.7,26.2,50,30,12,29.92,29.76,10,4,17,0.00
2013-4-12,92.5,81.5,74.1,53.0,37.5,20.9,46,25,10,29.83,29.72,7,2,14,0.00
2013-4-13,87.4,76.5,70.9,50.3,37.1,19.9,44,27,10,29.90,29.79,8,2,11,0.00
2013-4-14,85.6,76.8,68.0,59.5,46.7,31.9,64,36,16,29.88,29.75,8,3,15,2.62
2013-4-15,86.7,75.2,65.7,59.8,37.7,16.1,69,34,10,29.98,29.83,6,2,11,0.01
2013-4-16,84.2,75.9,68.0,57.1,39.2,20.6,59,29,10,30.06,29.95,9,3,15,0.00
2013-4-17,84.2,77.0,63.1,52.9,31.7,18.2,58,23,10,30.05,29.95,8,3,14,0.00
2013-4-18,73.6,71.3,69.6,45.7,42.7,40.0,41,36,31,29.98,29.94,2,0,5,0.00
2013-4-19,94.3,80.6,69.8,55.1,40.3,20.3,54,29,10,29.94,29.82,9,2,14,0.34
2013-4-20,77.4,69.8,65.3,62.1,40.0,28.9,62,35,18,30.03,29.87,8,2,15,0.02
2013-4-21,82.2,72.4,63.5,55.4,44.0,29.6,58,38,15,30.03,29.90,10,2,16,0.02
2013-4-22,83.7,72.8,67.5,57.6,45.9,18.9,64,43,10,29.98,29.88,9,2,20,0.05
2013-4-23,81.3,72.2,63.5,57.2,35.1,15.1,62,33,10,30.03,29.89,11,2,17,0.00
2013-4-24,63.3,60.6,59.2,44.7,42.4,40.3,57,51,43,30.02,29.97,1,0,2,0.00
2013-4-25,86.5,75.0,60.3,49.7,29.7,16.3,53,23,10,30.10,29.99,8,2,11,0.00
2013-4-26,86.4,75.2,62.1,51.9,34.2,17.9,56,28,10,30.15,30.06,7,2,13,0.00
2013-4-27,82.6,74.8,65.7,48.2,35.6,18.7,50,26,10,30.14,30.03,8,2,15,0.00
2013-4-28,82.0,77.3,70.0,34.5,25.5,18.4,27,16,10,30.05,29.96,10,5,18,0.00
2013-4-29,87.8,76.8,68.5,45.7,32.7,19.6,40,22,10,29.95,29.82,8,2,15,0.07
2013-4-30,85.5,74.4,68.9,55.2,46.1,25.0,56,40,13,29.91,29.84,6,1,11,0.53
2013-5-1,79.9,71.7,66.7,62.6,50.6,37.2,65,50,22,29.92,29.85,4,1,7,0.38
2013-5-2,79.7,73.3,66.2,54.8,46.1,39.7,63,39,24,29.87,29.73,8,2,17,0.54
2013-5-3,87.3,77.0,68.5,57.0,39.5,19.9,61,32,10,29.86,29.53,4,1,11,0.00
2013-5-4,88.9,75.8,68.9,50.8,38.4,19.6,50,30,10,29.69,29.57,6,1,13,0.00
2013-5-5,84.0,72.0,59.9,51.8,27.2,5.2,56,24,10,29.83,29.64,4,1,9,0.00
2013-5-6,85.5,70.6,57.6,40.2,22.6,7.8,48,19,10,29.91,29.80,5,1,15,0.00
2013-5-7,85.1,69.4,53.1,39.0,22.4,10.4,50,20,10,29.96,29.86,7,1,13,0.00
2013-5-31,83.8,80.2,77.2,46.6,39.2,31.2,33,24,15,30.01,29.95,11,6,17,0.08
2013-6-1,85.5,80.1,75.4,62.0,47.6,36.2,61,34,18,29.97,29.89,11,4,17,0.32
2013-6-2,91.4,80.0,72.7,63.3,49.6,27.2,60,39,10,29.91,29.79,8,2,13,0.69
2013-6-3,93.0,80.4,72.5,63.2,49.2,25.3,66,41,10,29.92,29.79,4,1,10,0.06
2013-6-4,87.6,79.4,72.1,59.8,44.5,21.3,57,34,10,29.95,29.85,4,1,7,0.00
2013-6-5,87.8,79.3,73.6,58.6,47.6,30.1,52,35,13,29.93,29.82,7,2,14,0.00
2013-6-6,82.0,76.8,73.4,62.5,55.5,47.0,64,48,34,29.83,29.62,5,3,12,1.33
2013-6-7,93.2,82.9,73.6,62.0,42.1,24.8,62,30,10,29.86,29.68,5,2,11,0.00
2013-6-8,93.2,78.9,72.5,61.1,48.5,24.5,60,40,10,30.00,29.85,8,1,14,0.13
2013-6-9,88.5,76.5,70.7,65.5,55.1,26.8,65,51,13,30.03,29.97,8,1,14,0.01
2013-7-6,88.7,82.8,76.6,53.7,41.1,24.7,45,25,10,30.04,29.97,8,3,14,0.00
2013-7-7,87.6,81.7,73.4,58.6,43.6,24.0,56,29,10,30.04,29.96,8,3,13,0.00
2013-7-8,88.3,82.8,73.4,61.6,40.4,23.1,57,27,10,30.07,29.99,7,3,11,0.00
2013-7-9,89.1,85.2,77.9,60.9,37.8,27.7,56,20,11,30.07,29.99,9,4,12,0.00
2013-7-10,88.7,84.6,79.5,45.4,31.2,23.9,30,16,10,29.98,29.89,7,4,11,0.01
2013-7-11,95.2,83.5,73.9,58.6,41.6,24.7,55,29,10,29.94,29.85,7,2,11,0.60
2013-7-12,94.6,79.8,72.3,65.4,48.0,23.6,65,37,10,29.86,29.79,7,1,11,0.01
2013-7-13,121.1,80.1,54.1,96.8,52.5,25.8,60,42,10,29.91,29.67,99,1,99,0.07
2013-7-14,90.7,76.7,32.0,63.2,51.3,-18.3,62,44,10,30.01,29.89,97,2,98,0.51
2013-7-15,75.7,71.5,69.6,63.6,57.5,54.4,66,61,56,30.00,29.96,97,0,2,0.00
2013-8-14,97.7,84.7,76.5,57.5,40.5,24.0,51,26,10,29.93,29.81,6,2,11,0.00
2013-8-15,95.0,82.9,74.8,60.6,44.5,24.6,56,33,10,29.94,29.84,6,1,10,0.52
2013-8-16,95.9,84.2,76.3,62.9,46.8,26.2,60,34,10,29.96,29.88,6,2,10,0.00
2013-8-17,91.9,83.6,78.3,62.9,49.5,26.3,55,34,10,29.99,29.91,7,2,13,0.00
2013-8-18,89.4,82.7,76.5,62.1,49.8,30.1,55,35,12,30.03,29.93,8,2,14,0.45
2013-8-19,92.3,84.1,76.1,65.9,44.7,24.8,64,31,10,29.99,29.88,8,3,14,0.00
2013-8-20,91.2,86.3,50.2,60.5,37.4,-59.6,54,21,10,30.01,29.91,10,4,16,0.00
2013-8-21,90.9,83.8,78.3,63.3,47.0,27.4,56,30,11,30.02,29.94,11,3,18,0.11
2013-8-22,104.0,84.6,76.8,69.7,46.4,25.4,65,29,10,29.99,29.89,9,3,15,0.05
2013-8-23,92.7,83.5,75.7,64.5,46.2,23.9,57,31,10,29.93,29.85,9,2,16,0.00
2013-8-24,96.1,82.3,74.7,63.0,46.4,24.7,57,32,10,30.01,29.90,11,2,20,0.06
2013-8-25,87.3,78.9,73.0,66.9,54.2,35.8,65,45,18,30.07,29.97,10,1,17,0.58
2013-8-26,91.9,81.3,73.8,66.3,46.9,24.8,64,36,10,30.04,29.92,8,2,15,0.05
2013-8-27,88.5,80.3,71.4,60.6,37.9,20.3,60,28,10,29.97,29.89,11,2,21,0.01
2013-8-28,90.3,79.9,69.6,60.1,37.8,21.4,58,28,10,29.97,29.88,8,2,14,0.00
2013-8-29,94.3,82.7,73.2,58.6,39.2,23.3,53,26,10,29.93,29.84,5,1,9,0.00
2013-8-30,95.9,82.6,72.9,60.4,40.9,21.9,55,28,10,29.89,29.80,8,1,14,0.00
2013-8-31,98.4,82.5,72.3,61.6,41.4,20.4,60,30,10,29.90,29.79,9,1,21,0.00
2013-9-1,97.9,80.5,71.6,62.8,44.2,24.9,59,34,10,29.91,29.82,9,1,14,0.12
2013-9-2,98.1,80.3,71.6,63.3,47.7,25.6,63,40,10,29.93,29.82,7,1,11,0.76
2013-9-3,97.3,80.2,72.0,62.5,48.9,25.1,62,41,10,29.92,29.83,8,1,12,0.19
2013-9-4,93.2,81.6,73.4,67.0,48.5,23.9,65,38,10,29.99,29.87,7,1,11,0.02
2013-9-5,92.5,83.5,74.8,67.7,44.5,24.8,60,31,10,29.99,29.91,7,2,12,0.00
2013-9-6,95.2,82.0,74.5,66.7,48.6,24.0,60,38,10,29.95,29.85,8,1,14,0.11
2013-9-7,91.2,80.3,73.6,67.0,46.9,23.2,66,38,10,29.91,29.83,6,1,11,0.01
2013-9-8,92.1,81.3,73.4,61.9,43.1,24.1,60,32,10,29.88,29.78,10,2,16,0.00
2013-9-9,90.0,81.6,72.7,62.7,40.8,23.6,61,29,10,29.92,29.82,8,2,14,0.00
2013-9-12,90.9,79.3,72.5,61.6,46.3,23.5,58,36,10,29.92,29.81,5,1,9,0.00
2013-9-13,93.2,81.5,72.0,63.5,41.5,23.2,60,31,10,29.81,29.70,5,1,8,0.00
2013-9-14,94.1,82.1,73.8,60.6,44.8,27.1,57,31,10,29.88,29.73,5,1,9,0.20
2013-9-15,90.9,80.7,73.0,60.1,49.8,26.8,55,37,10,29.98,29.86,7,1,13,0.37
2013-9-16,89.1,79.8,72.1,62.8,44.3,24.6,59,33,10,29.98,29.89,9,2,14,0.00
2013-9-17,89.1,80.2,72.7,59.5,45.2,24.2,53,33,10,29.97,29.87,9,2,17,0.33
2013-9-18,86.4,80.3,75.9,57.4,47.2,35.6,51,33,17,29.93,29.85,6,2,10,0.20
2013-9-19,88.9,82.4,74.5,56.2,34.8,23.3,48,20,10,29.95,29.86,11,4,19,0.00
2013-9-20,77.9,72.6,69.3,49.2,43.3,29.6,48,36,17,29.92,29.88,2,0,4,0.00
2013-9-21,91.4,80.7,70.2,54.4,35.6,20.5,49,24,10,29.84,29.68,6,1,10,0.00
2013-9-22,95.7,83.1,72.0,56.8,40.2,23.3,51,27,10,29.76,29.65,8,1,13,0.01
2013-9-23,92.8,78.1,72.7,66.3,53.1,25.4,73,47,10,29.89,29.74,100,2,100,1.59
2013-9-24,90.3,79.0,74.1,69.6,57.0,28.5,75,52,13,29.87,29.75,4,1,10,0.08
2013-9-25,87.4,78.9,73.9,63.5,44.8,21.1,62,36,10,29.75,29.68,6,1,14,0.01
2013-9-26,96.1,82.1,74.5,62.6,46.2,25.5,60,34,10,29.75,29.65,8,2,15,0.01
2013-9-27,90.7,76.2,70.5,59.4,48.4,12.9,60,43,10,29.84,29.73,11,1,17,0.47
2013-9-28,85.6,76.9,50.0,66.7,46.3,21.5,71,40,12,29.90,29.80,8,2,17,0.32
2013-9-29,90.7,78.4,69.3,55.2,36.9,20.6,54,27,10,29.88,29.81,7,1,11,0.00
2013-9-30,93.2,79.1,68.2,59.3,38.0,20.3,59,29,10,29.92,29.81,7,1,11,0.00
2013-10-1,78.6,78.3,78.1,39.7,39.6,39.1,25,25,25,29.91,29.91,2,1,4,0.00
2013-10-4,91.0,78.5,69.3,58.0,38.0,21.7,56,29,10,29.98,29.91,5,2,11,0.00
2013-10-5,90.9,79.1,70.0,57.3,41.0,22.8,55,30,10,29.95,29.86,7,2,11,0.00
2013-10-6,90.5,80.4,71.1,56.8,40.2,23.9,52,29,10,29.87,29.78,7,1,11,0.00
2013-10-7,90.1,79.5,73.2,56.0,45.2,23.3,52,34,10,29.78,29.68,5,1,12,0.01
2013-10-8,91.9,80.2,73.8,62.2,46.3,21.8,64,38,10,29.82,29.69,6,1,11,0.01
2013-10-9,87.8,77.1,69.4,61.1,45.0,22.0,62,38,10,29.92,29.79,5,1,11,0.05
2013-10-10,86.7,74.9,65.3,52.7,35.0,17.0,58,30,10,29.94,29.87,5,1,11,0.00
2013-10-11,91.2,74.9,60.8,51.9,32.4,14.5,58,27,10,29.95,29.85,6,1,10,0.00
2013-10-12,94.1,76.9,64.8,54.3,34.2,15.4,56,27,10,29.94,29.86,6,1,14,0.00
2013-10-13,89.4,75.0,62.1,51.5,32.5,17.1,55,26,10,29.99,29.88,8,1,12,0.00
2013-10-14,87.8,75.8,65.8,54.8,36.2,19.2,56,29,10,29.94,29.83,8,2,16,0.00
2013-10-15,77.4,70.1,66.9,58.2,52.1,45.1,61,53,35,29.89,29.82,2,0,4,0.00
2013-10-16,93.0,76.0,67.8,57.9,43.4,21.8,59,37,10,29.87,29.79,4,1,10,0.00
2013-10-17,93.0,77.6,66.6,58.2,40.0,21.2,60,32,10,29.88,29.79,4,1,8,0.00
2013-10-18,90.3,78.6,68.2,59.6,39.8,22.7,62,31,10,29.90,29.81,6,1,11,0.00
2013-10-19,94.8,83.4,68.7,59.8,38.6,23.7,57,24,10,29.87,29.77,8,2,13,0.00
2013-10-20,93.2,80.5,73.9,63.5,45.0,24.4,62,33,10,29.87,29.76,8,1,14,0.00
2013-10-21,94.8,81.5,71.2,62.1,45.3,25.1,59,33,10,29.90,29.80,8,1,13,0.01
2013-10-22,90.7,78.9,75.0,59.6,52.1,25.6,56,42,10,29.86,29.79,4,1,11,0.00
2013-10-23,87.3,73.4,65.5,62.2,38.1,18.3,66,33,10,29.90,29.69,3,0,8,0.00
2013-10-24,77.2,67.6,61.9,36.6,18.4,7.1,37,16,10,30.04,29.89,5,1,12,0.00
2013-10-25,82.9,70.4,59.7,42.4,25.8,8.2,49,23,10,30.11,30.03,8,2,13,0.00
2013-10-26,84.9,69.1,56.3,38.9,23.1,8.5,45,20,10,30.10,29.99,7,1,9,0.00
2013-10-27,58.3,56.9,55.2,34.9,33.7,31.3,45,42,37,30.02,29.97,0,0,1,0.00
2013-10-28,84.4,70.5,57.2,41.2,28.1,13.7,50,26,10,30.08,29.99,6,1,13,0.00
2013-10-29,86.5,74.0,61.3,43.5,29.7,17.0,51,24,10,30.11,30.03,8,2,12,12.09
2013-10-30,86.2,76.9,67.5,52.9,32.1,17.0,55,23,10,30.12,30.01,9,2,13,0.09
2013-10-31,86.5,78.1,69.8,44.4,28.1,18.8,39,18,10,30.03,29.91,9,2,16,0.00
2013-11-1,92.3,78.7,70.2,56.9,37.8,18.4,52,28,10,29.92,29.76,6,1,13,0.00
2013-11-2,87.1,70.6,64.4,63.6,39.4,19.1,71,36,10,29.86,29.71,7,1,12,0.09
2013-11-3,79.2,64.7,57.7,41.1,34.4,13.4,49,36,10,29.95,29.84,6,0,13,0.00
2013-11-4,80.4,74.4,70.5,39.3,20.7,11.8,32,14,10,30.06,29.97,15,6,26,0.01
2013-11-5,84.2,76.4,72.0,52.3,33.0,15.2,49,22,10,30.06,29.98,13,5,21,0.18
2013-11-7,86.4,74.0,64.8,56.1,38.6,19.9,57,32,10,29.95,29.85,3,1,8,0.00
2013-11-8,81.3,72.3,63.5,52.7,32.5,19.1,58,27,10,30.00,29.88,7,3,14,0.00
2013-11-9,81.3,74.0,64.4,41.3,25.9,15.7,42,19,10,30.08,29.98,10,4,17,0.00
2013-11-10,84.6,72.2,63.1,52.2,35.1,16.3,55,31,10,30.06,29.99,5,1,9,0.00
2013-11-11,83.8,74.7,64.6,55.9,30.3,18.1,58,24,10,30.06,29.98,5,2,10,0.00
2013-11-12,82.9,72.1,64.2,54.1,38.3,19.2,57,34,10,30.00,29.90,4,1,9,0.00
2013-11-13,71.2,67.4,64.8,40.6,16.0,7.2,37,15,10,30.18,29.95,13,5,108,0.00
2013-11-14,77.5,71.0,66.2,16.6,11.6,7.9,10,10,10,30.20,30.08,10,5,17,0.00
2013-11-15,80.4,73.1,65.3,45.8,23.3,8.3,40,18,10,30.09,29.98,5,2,10,0.01
2013-11-16,82.2,75.3,69.8,49.7,35.7,16.9,48,27,10,30.02,29.93,6,2,10,0.06
2013-11-17,87.3,79.8,69.6,54.9,34.0,19.3,53,23,10,29.99,29.90,10,3,16,0.01
2013-11-18,93.0,77.7,70.2,55.4,39.0,20.6,57,29,10,29.93,29.81,4,0,9,0.00
2013-11-19,83.7,74.7,69.3,55.3,36.0,16.7,55,31,10,29.85,29.77,6,1,11,0.00
2013-11-20,80.4,73.6,68.2,62.7,49.2,32.6,73,45,18,30.01,29.84,8,4,14,1.78
2013-11-21,80.8,75.7,72.3,56.9,44.1,30.4,58,34,16,30.08,29.99,8,4,14,0.67
2013-11-22,82.4,75.2,68.7,45.7,31.4,16.3,35,22,10,30.10,30.00,8,3,14,0.01
2013-11-23,82.9,70.1,63.7,51.7,37.5,7.1,63,33,10,30.01,29.95,12,1,8,0.00
2013-11-24,78.1,68.3,66.2,48.0,20.3,8.8,51,17,10,30.13,29.95,11,6,27,0.00
2013-11-25,75.0,70.5,67.8,39.2,12.9,9.3,32,11,10,30.15,29.99,14,6,21,0.00
2013-11-26,84.9,78.1,70.9,56.4,39.2,18.1,55,27,10,29.98,29.66,11,3,22,0.11
2013-11-27,76.6,67.0,46.6,58.9,31.8,6.3,61,33,10,30.08,29.60,8,2,16,0.17
2013-11-28,71.8,54.8,39.0,32.1,14.8,-2.9,42,23,10,30.22,30.07,6,2,14,0.00
2013-11-29,76.1,62.7,52.3,40.8,27.5,12.5,47,30,10,30.24,30.16,7,2,15,0.00
2013-11-30,79.3,67.8,60.8,57.2,37.3,14.1,64,39,10,30.18,30.06,10,2,17,0.17
2013-12-1,71.4,66.2,62.2,55.1,50.3,44.6,66,57,47,30.06,29.94,98,1,98,0.15
2013-12-2,74.3,65.4,58.1,54.6,39.6,13.6,68,44,10,29.86,29.71,2,0,5,0.01
2013-12-3,82.6,67.5,55.9,49.7,31.7,14.1,60,32,10,29.90,29.79,4,1,8,0.00
2013-12-4,87.3,70.2,59.5,59.4,38.8,17.2,60,35,10,30.00,29.86,4,0,10,0.00
2013-12-5,84.6,73.5,60.8,52.4,40.4,18.4,55,33,10,30.08,29.99,7,1,11,0.00
2013-12-6,83.5,71.5,66.4,62.6,44.8,20.6,63,40,10,30.09,30.01,4,0,8,0.20
2013-12-7,86.2,75.7,-7.6,54.2,35.4,-23.1,55,28,10,30.15,30.06,100,1,100,0.00
2013-12-8,84.6,73.2,63.1,60.6,35.6,-14.8,63,32,10,30.14,30.03,9,2,15,0.00
2013-12-9,87.3,78.1,66.9,58.4,29.7,15.9,60,21,10,30.10,30.00,7,2,12,0.00
2013-12-10,88.5,74.2,61.0,48.6,31.0,13.7,49,24,10,30.08,29.97,4,1,13,0.00
2013-12-11,71.6,67.4,61.9,44.0,40.2,36.5,42,37,33,30.10,30.07,4,2,11,0.00
2013-12-12,72.5,59.7,52.3,49.7,19.1,0.1,57,24,10,30.19,30.08,8,1,14,0.00
2013-12-13,76.8,64.4,49.1,39.2,18.6,10.5,47,21,10,30.16,30.03,25,3,25,0.00
2013-12-14,81.3,74.9,71.1,50.6,37.9,16.3,42,27,12,30.03,29.86,10,3,17,0.14
2013-12-15,79.0,70.0,62.2,58.3,42.2,15.8,61,40,10,30.00,29.81,99,1,101,0.32
2013-12-16,71.4,60.4,48.6,39.1,22.6,7.4,46,28,10,30.11,29.99,6,1,15,0.01
2013-12-17,76.5,60.6,48.4,35.9,22.0,-0.1,53,28,10,30.13,30.04,97,1,97,0.00
2013-12-18,73.8,57.4,45.9,33.1,18.0,1.9,50,26,10,30.18,30.08,6,1,12,0.01
2013-12-19,77.2,59.5,44.4,34.3,21.6,1.6,49,27,10,30.18,30.09,49,2,14,0.00
2013-12-20,82.6,68.1,51.6,46.3,26.5,1.6,53,26,10,30.12,30.02,49,4,15,0.00
2013-12-21,81.9,73.3,63.3,57.3,44.1,27.6,56,38,15,30.07,29.96,99,3,99,0.00
2013-12-22,88.7,76.5,68.5,62.7,43.5,-26.2,68,37,10,30.06,29.98,98,1,102,0.01
2013-12-23,103.1,76.9,65.1,55.9,39.5,22.1,60,32,10,30.08,29.98,98,3,100,0.00
2013-12-24,75.2,68.8,51.3,43.3,30.8,3.2,32,26,10,30.13,29.99,100,2,100,0.01
2013-12-25,76.1,63.2,47.8,34.7,18.4,-6.1,46,22,10,30.13,30.06,10,2,24,0.76
2013-12-26,80.4,65.4,33.6,42.1,30.4,13.0,53,31,10,30.10,29.99,7,1,24,0.00
2013-12-27,122.2,70.4,65.7,52.4,42.5,-26.3,55,39,10,30.14,30.04,4,2,28,0.00
2013-12-28,79.7,73.0,-10.7,58.1,45.4,-51.8,66,40,10,30.11,29.93,114,4,114,0.07
2013-12-29,74.5,73.9,73.8,49.9,48.6,45.5,43,41,36,29.94,29.84,8,2,14,0.00
2013-12-30,69.6,64.4,55.6,52.6,42.2,29.8,59,45,25,30.07,29.88,2,0,6,0.00
2013-12-31,56.8,56.8,56.8,36.3,36.3,36.3,46,46,46,30.20,30.09,0,0,0,0.00
2014-1-1,70.9,66.4,63.7,57.2,45.4,27.9,68,48,25,30.14,29.95,4,1,7,0.05
2014-1-2,86.5,71.9,67.5,56.9,47.0,18.1,68,48,10,29.94,29.71,8,2,17,0.41